#timestamp,LO_Frequency,Hit,StdDev 
1515672015.6,286047000.6,N
1515672035.4,286047000.9,N
1515672055.3,286047000.0,N
1515672075.1,286047001.1,N
1515672076.0,286047001.1,N
1515672095.8,286046997.9,N
1515672115.7,286046995.6,Y
1515672135.5,286046993.4,P
1515672155.3,286046996.2,N
1515672175.2,286046993.5,N
1515672195.0,286046994.3,N
1515672195.9,286046994.3,N
1515672215.8,286046996.3,N
1515672235.6,286046995.4,N
1515672255.4,286046994.3,N
1515672275.3,286046992.9,Y
1515672295.1,286046995.8,P
1515672315.8,286046996.7,P
1515672335.7,286046999.0,N
1515672355.5,286046998.6,N
1515672375.4,286046998.2,N
1515672395.2,286046996.7,N
1515672415.0,286046997.1,N
1515672415.9,286046997.1,N
1515672435.8,286046997.3,N
1515672455.6,286046996.3,Y
1515672475.5,286046997.4,P
1515672495.3,286046995.6,P
1515672515.1,286046993.3,P
1515672535.9,286046993.5,Y
1515672555.7,286046999.2,P
1515672575.5,286046997.3,N
1515672595.4,286046994.9,P
1515672615.2,286046996.3,N
1515672635.1,286046996.3,N
1515672636.0,286046996.3,N
1515672655.8,286046997.0,N
1515672675.6,286047001.2,N
1515672695.5,286046999.9,N
1515672715.3,286046999.9,N
1515672735.1,286047000.4,N
1515672755.9,286047001.1,N
1515672775.7,286047000.7,N
1515672795.6,286047002.5,N
1515672815.4,286047001.7,N
1515672835.2,286047003.9,N
1515672855.1,286047003.4,N
1515672856.0,286047003.4,N
1515672875.8,286047004.4,N
1515672895.7,286047004.1,N
1515672915.5,286047004.3,N
1515672935.3,286047001.9,N
1515672955.2,286047002.2,N
1515672975.9,286047002.2,N
1515672995.7,286047004.4,N
1515673015.6,286047011.9,Y
1515673035.4,286047000.2,P
1515673055.3,286047002.8,P
1515673075.1,286046999.8,N
1515673076.0,286046999.8,N
1515673095.8,286047002.4,N
1515673115.7,286047000.0,N
1515673135.5,286047000.5,N
1515673155.3,286047000.2,N
1515673175.2,286047000.5,N
1515673195.0,286047002.8,N
1515673195.9,286047002.8,N
1515673215.8,286047002.5,N
1515673235.6,286047001.7,N
1515673255.4,286047002.4,N
1515673275.3,286047001.8,N
1515673295.1,286047001.4,N
1515673315.8,286047000.3,N
1515673335.7,286047000.9,N
1515673355.5,286047000.2,N
1515673375.4,286047000.1,N
1515673395.2,286047000.3,N
1515673415.0,286047000.7,N
1515673415.9,286047000.7,N
1515673435.8,286047000.6,N
1515673455.6,286047000.3,N
1515673475.5,286047000.2,N
1515673495.3,286046998.2,N
1515673515.1,286046998.2,N
1515673535.9,286046998.3,N
1515673555.7,286046998.5,N
1515673575.5,286046999.5,N
1515673595.4,286047000.9,N
1515673615.2,286047000.6,N
1515673635.1,286046998.6,N
1515673636.0,286046998.6,N
1515673655.8,286047000.6,N
1515673675.6,286047000.9,N
1515673695.5,286046999.8,N
1515673715.3,286046999.9,N
1515673735.1,286047002.8,N
1515673755.9,286047001.4,N
1515673775.7,286047004.1,Y
1515673795.6,286047005.4,P
1515673815.4,286047003.2,N
1515673835.2,286047003.6,N
1515673855.1,286047005.4,N
1515673856.0,286047005.4,N
1515673875.8,286047005.6,Y
1515673895.7,286047001.5,P
1515673915.5,286047001.3,N
1515673935.3,286047001.8,N
1515673955.2,286047003.5,Y
1515673975.0,286047001.6,P
1515673975.9,286047001.6,P
1515673995.7,286047002.2,P
1515674015.6,286047002.4,Y
1515674035.4,286046999.6,P
1515674055.3,286047001.2,N
1515674075.1,286046999.2,N
1515674095.8,286046997.0,N
1515674115.7,286046997.0,N
1515674135.5,286046999.2,N
1515674155.4,286046998.7,N
1515674175.2,286047000.8,N
1515674195.0,286046998.1,N
1515674195.9,286046998.1,N
1515674215.8,286047000.6,N
1515674235.6,286047000.4,N
1515674255.4,286046998.4,N
1515674275.3,286046998.3,N
1515674295.1,286046998.8,N
1515674315.9,286046998.5,N
1515674335.7,286046999.5,N
1515674355.5,286046995.3,Y
1515674375.4,286046999.1,P
1515674395.2,286046998.8,P
1515674415.0,286046998.4,P
1515674415.9,286046998.4,Y
1515674435.8,286046998.5,P
1515674455.6,286047001.0,P
1515674475.5,286047000.8,N
1515674495.3,286047001.2,N
1515674515.1,286047000.0,N
1515674535.9,286046998.1,N
1515674555.7,286046999.8,N
1515674575.6,286047002.4,N
1515674595.4,286047004.3,Y
1515674615.2,286047002.6,P
1515674635.1,286046999.9,N
1515674636.0,286046999.9,N
1515674655.8,286047001.1,N
1515674675.6,286047000.9,N
1515674695.5,286047001.0,N
1515674715.3,286047001.1,N
1515674735.2,286046998.5,N
1515674755.9,286046999.6,N
1515674775.7,286046999.0,N
1515674795.6,286046998.4,N
1515674815.4,286047000.7,N
1515674835.2,286047001.0,N
1515674855.1,286047000.9,N
1515674856.0,286047000.9,N
1515674875.8,286046999.9,N
1515674895.7,286047001.1,N
1515674915.5,286046994.9,Y
1515674935.3,286046994.6,P
1515674955.2,286046994.3,N
1515674975.0,286046993.8,N
1515674975.9,286046993.8,N
1515674995.8,286046993.7,N
1515675015.6,286046994.2,N
1515675035.4,286046991.7,Y
1515675055.3,286046999.1,P
1515675075.1,286046996.5,N
1515675095.9,286046999.3,N
1515675115.7,286046999.2,N
1515675135.5,286046999.6,N
1515675155.4,286046998.4,N
1515675175.2,286046999.1,N
1515675195.0,286047001.2,N
1515675195.9,286047001.2,N
1515675215.8,286046999.5,N
1515675235.6,286046997.1,N
1515675255.5,286046999.6,N
1515675275.3,286046998.4,N
1515675295.1,286046998.1,N
1515675315.9,286047000.7,N
1515675335.7,286047000.3,N
1515675355.5,286047001.2,N
1515675375.4,286047001.1,N
1515675395.2,286046998.1,N
1515675415.1,286047001.1,N
1515675416.0,286047001.1,N
1515675435.8,286046998.6,N
1515675455.6,286047000.5,N
1515675475.5,286047002.7,N
1515675495.3,286047002.7,N
1515675515.1,286047002.2,N
1515675535.9,286047003.2,N
1515675555.7,286047003.5,N
1515675575.6,286047003.7,N
1515675595.4,286047004.0,N
